This demonstration page uses our WeatherBlox Daily Observations layout. Learn more.

Left ArrowRight Arrow

Hourly Observations for August 25, 2016

Temp ( °F °C ) Dew Point ( °F °C ) Humidity (%) Winds ( mph kmh ) Pressure ( in mb ) Visibility ( mi km ) Precip ( " mm )
12:14 am 00:14 Partly Cloudy 75 24 73 23 94 94 SSW 5 7 30.03 1017 10 16.0934 N/A
12:34 am 00:34 Mostly Cloudy 75 24 73 23 94 94 S 3 6 30.03 1017 10 16.0934 N/A
12:54 am 00:54 Partly Cloudy 75 24 73 23 94 94 S 5 7 30.03 1017 10 16.0934 N/A
1:14 am 01:14 Mostly Cloudy 75 24 73 23 94 94 S 7 11 30.03 1017 10 16.0934 N/A
1:34 am 01:34 Partly Cloudy 75 24 73 23 94 94 SSW 6 9 30.03 1017 10 16.0934 N/A
1:54 am 01:54 Partly Cloudy 75 24 73 23 94 94 SSW 6 9 30.03 1017 10 16.0934 N/A
2:14 am 02:14 Partly Cloudy 75 24 73 23 94 94 SSW 3 6 30.03 1017 10 16.0934 N/A
2:34 am 02:34 Partly Cloudy 73 23 73 23 100 100 SSW 5 7 30 1016 10 16.0934 N/A
2:54 am 02:54 Clear 73 23 73 23 100 100 S 3 6 30 1016 7 11.26538 N/A
3:14 am 03:14 Clear 73 23 72 22 94 94 Calm 30.03 1017 7 11.26538 N/A
3:34 am 03:34 Clear 72 22 72 22 100 100 Calm 30.03 1017 5 8.0467 N/A
3:54 am 03:54 Mostly Cloudy 72 22 72 22 100 100 Calm 30.03 1017 4 6.43736 N/A
4:14 am 04:14 Cloudy 72 22 72 22 100 100 Calm 30.03 1017 5 8.0467 N/A
4:34 am 04:34 Partly Cloudy 72 22 72 22 100 100 SSE 3 6 30.03 1017 5 8.0467 N/A
4:54 am 04:54 Clear 72 22 72 22 100 100 S 5 7 30.03 1017 4 6.43736 N/A
5:14 am 05:14 Partly Cloudy 72 22 72 22 100 100 SSE 5 7 30.03 1017 5 8.0467 N/A
5:34 am 05:34 Clear 72 22 72 22 100 100 Calm 30.03 1017 5 8.0467 N/A
5:54 am 05:54 Mostly Cloudy 72 22 72 22 100 100 S 6 9 30.03 1017 5 8.0467 N/A
6:14 am 06:14 Mostly Cloudy 73 23 72 22 94 94 S 5 7 30.03 1017 5 8.0467 N/A
6:34 am 06:34 Partly Cloudy 73 23 72 22 94 94 SSW 3 6 30.03 1017 7 11.26538 N/A
6:54 am 06:54 Mostly Cloudy 73 23 72 22 94 94 Calm 30.03 1017 5 8.0467 N/A
7:14 am 07:14 Mostly Cloudy 73 23 72 22 94 94 Calm 30.03 1017 7 11.26538 N/A
7:34 am 07:34 Partly Cloudy 72 22 72 22 100 100 Calm 30.03 1017 4 6.43736 N/A
7:54 am 07:54 Sunny 72 22 72 22 100 100 Calm 30.03 1017 2.5 4.02335 N/A
8:14 am 08:14 Sunny 73 23 73 23 100 100 Calm 30.03 1017 5 8.0467 N/A
8:34 am 08:34 Sunny 75 24 73 23 94 94 Calm 30.03 1017 5 8.0467 N/A
8:54 am 08:54 Sunny 77 25 73 23 89 89 S 3 6 30.03 1017 7 11.26538 N/A
9:15 am 09:15 Partly Cloudy 77 25 75 24 94 94 SSW 6 9 30.03 1017 7 11.26538 N/A
9:34 am 09:34 Sunny 79 26 75 24 89 89 SSW 6 9 30.03 1017 10 16.0934 N/A
9:54 am 09:54 Partly Cloudy 79 26 73 23 84 84 SSW 7 11 30.03 1017 10 16.0934 N/A
10:14 am 10:14 Partly Cloudy 81 27 75 24 84 84 SW 8 13 30.03 1017 10 16.0934 N/A
10:34 am 10:34 Partly Cloudy 81 27 73 23 79 79 SSW 7 11 30.03 1017 10 16.0934 N/A
10:54 am 10:54 Partly Cloudy 81 27 73 23 79 79 SW 9 15 30.03 1017 10 16.0934 N/A
11:14 am 11:14 Sunny 82 28 75 24 79 79 SSW 8 13 30.03 1017 10 16.0934 N/A
11:34 am 11:34 Sunny 82 28 75 24 79 79 S 9 15 30.03 1017 10 16.0934 N/A
11:54 am 11:54 Sunny 84 29 75 24 74 74 SW 6 9 30.06 1018 10 16.0934 N/A
12:14 pm 12:14 Sunny 84 29 75 24 74 74 SW 9 15 30.06 1018 10 16.0934 N/A
12:34 pm 12:34 Partly Cloudy 84 29 73 23 70 70 SW 9 15 30.06 1018 10 16.0934 N/A
12:54 pm 12:54 Mostly Cloudy 84 29 73 23 70 70 WSW 9 15 30.06 1018 10 16.0934 N/A
1:14 pm 13:14 Mostly Cloudy 86 30 75 24 70 70 W 9 15 30.06 1018 10 16.0934 N/A
1:34 pm 13:34 Partly Cloudy 86 30 73 23 66 66 WSW 14 22 30.06 1018 10 16.0934 N/A
1:54 pm 13:54 Sunny 86 30 72 22 62 62 WSW 14 22 30.06 1018 10 16.0934 N/A
2:14 pm 14:14 Partly Cloudy 86 30 72 22 62 62 W 9 15 30.06 1018 10 16.0934 N/A
2:34 pm 14:34 Partly Cloudy 86 30 73 23 66 66 WSW 9 15 30.06 1018 10 16.0934 N/A
2:54 pm 14:54 Partly Cloudy 84 29 72 22 66 66 W 9 15 30.06 1018 10 16.0934 N/A
3:14 pm 15:14 Mostly Cloudy 84 29 73 23 70 70 W 10 17 30.03 1017 10 16.0934 N/A
3:34 pm 15:34 Partly Cloudy 88 31 73 23 62 62 W 12 19 30.03 1017 10 16.0934 N/A
3:54 pm 15:54 Partly Cloudy 86 30 73 23 66 66 WSW 10 17 30.03 1017 10 16.0934 N/A
4:14 pm 16:14 Mostly Cloudy 86 30 72 22 62 62 WSW 10 17 30.03 1017 10 16.0934 N/A
4:35 pm 16:35 Mostly Cloudy 86 30 72 22 62 62 WSW 13 20 30.03 1017 10 16.0934 N/A
4:54 pm 16:54 Partly Cloudy 84 29 72 22 66 66 W 12 19 30.03 1017 10 16.0934 N/A
5:14 pm 17:14 Partly Cloudy 86 30 72 22 62 62 WSW 7 11 30.03 1017 10 16.0934 N/A
5:35 pm 17:35 Mostly Cloudy 84 29 72 22 66 66 SW 7 11 30.03 1017 10 16.0934 N/A
5:54 pm 17:54 Partly Cloudy 84 29 72 22 66 66 WSW 8 13 30.03 1017 10 16.0934 N/A
6:14 pm 18:14 Mostly Cloudy 84 29 72 22 66 66 WSW 10 17 30.03 1017 10 16.0934 N/A
6:34 pm 18:34 Mostly Cloudy 84 29 72 22 66 66 WSW 8 13 30.03 1017 10 16.0934 N/A
6:54 pm 18:54 Partly Cloudy 84 29 72 22 66 66 WSW 7 11 30.03 1017 10 16.0934 N/A
7:14 pm 19:14 Partly Cloudy 82 28 72 22 70 70 WSW 7 11 30.03 1017 10 16.0934 N/A
7:34 pm 19:34 Partly Cloudy 82 28 72 22 70 70 WSW 5 7 30.03 1017 10 16.0934 N/A
7:54 pm 19:54 Partly Cloudy 81 27 72 22 74 74 SW 5 7 30.03 1017 10 16.0934 N/A
8:14 pm 20:14 Partly Cloudy 79 26 72 22 79 79 WSW 5 7 30.03 1017 10 16.0934 N/A
8:34 pm 20:34 Partly Cloudy 79 26 72 22 79 79 SW 3 6 30.03 1017 10 16.0934 N/A
8:54 pm 20:54 Clear 77 25 72 22 83 83 W 5 7 30.03 1017 10 16.0934 N/A
9:15 pm 21:15 Clear 75 24 72 22 89 89 Calm 30.03 1017 10 16.0934 N/A
9:34 pm 21:34 Partly Cloudy 73 23 72 22 94 94 Calm 30.03 1017 10 16.0934 N/A
9:54 pm 21:54 Partly Cloudy 73 23 72 22 94 94 Calm 30.06 1018 10 16.0934 N/A
10:15 pm 22:15 Partly Cloudy 72 22 70 21 94 94 Calm 30.06 1018 10 16.0934 N/A
10:34 pm 22:34 Partly Cloudy 72 22 70 21 94 94 Calm 30.03 1017 10 16.0934 N/A
10:54 pm 22:54 Clear 72 22 72 22 100 100 Calm 30.06 1018 10 16.0934 N/A
11:15 pm 23:15 Clear 72 22 72 22 100 100 Calm 30.06 1018 10 16.0934 N/A
11:34 pm 23:34 Clear 72 22 70 21 94 94 Calm 30.06 1018 10 16.0934 N/A
11:54 pm 23:54 Mostly Cloudy 72 22 72 22 100 100 Calm 30.06 1018 5 8.0467 N/A

Powered by AerisWeather